• In Uzbekistan
  • List of Countries
  • For 7 days
  • Water Temperature
  • Satellite Maps
  • Weather Map
  • Weather Widgets
  • user-avatar
    Login

    Hourly Weather Baranagar

    Today, 22 June, Friday

    Time Temperature Precipitation Wind Pressure Humidity
    00:00 +35°C° 0 mm 2 mps 750 mmHg 56%
    01:00 +34°C° 0 mm 2 mps 750 mmHg 59%
    02:00 +34°C° 0 mm 3 mps 750 mmHg 61%
    03:00 +34°C° 0 mm 3 mps 750 mmHg 63%
    04:00 +33°C° 0 mm 3 mps 750 mmHg 66%
    05:00 +33°C° 0 mm 3 mps 751 mmHg 68%
    06:00 +33°C° 0 mm 3 mps 751 mmHg 71%
    07:00 +34°C° 0 mm 3 mps 751 mmHg 66%
    08:00 +36°C° 0 mm 3 mps 751 mmHg 60%
    09:00 +37°C° 0 mm 3 mps 751 mmHg 54%
    10:00 +38°C° 0 mm 3 mps 751 mmHg 50%
    11:00 +39°C° 0 mm 3 mps 750 mmHg 45%
    12:00 +40°C° 0 mm 3 mps 750 mmHg 41%
    13:00 +42°C° 0 mm 3 mps 749 mmHg 40%
    14:00 +42°C° 0 mm 4 mps 749 mmHg 38%
    15:00 +43°C° 0 mm 4 mps 748 mmHg 37%
    16:00 +42°C° 0 mm 5 mps 748 mmHg 40%
    17:00 +41°C° 0 mm 6 mps 748 mmHg 44%
    18:00 +39°C° 0 mm 6 mps 748 mmHg 48%
    19:00 +38°C° 0 mm 6 mps 748 mmHg 53%
    20:00 +36°C° 0 mm 6 mps 748 mmHg 59%
    21:00 +35°C° 0 mm 6 mps 749 mmHg 64%
    22:00 +34°C° 0 mm 6 mps 749 mmHg 65%
    23:00 +34°C° 0 mm 6 mps 749 mmHg 66%

    Tomorrow, 23 June, Saturday

    Time Temperature Precipitation Wind Pressure Humidity
    00:00 +34°C° 0 mm 6 mps 749 mmHg 66%
    01:00 +34°C° 0 mm 6 mps 749 mmHg 67%
    02:00 +34°C° 0 mm 5 mps 749 mmHg 68%
    03:00 +34°C° 0 mm 5 mps 748 mmHg 68%
    04:00 +33°C° 0 mm 5 mps 748 mmHg 69%
    05:00 +33°C° 0 mm 5 mps 749 mmHg 69%
    06:00 +33°C° 0 mm 5 mps 749 mmHg 70%
    07:00 +35°C° 0 mm 5 mps 749 mmHg 64%
    08:00 +36°C° 0 mm 5 mps 749 mmHg 58%
    09:00 +39°C° 0 mm 6 mps 750 mmHg 51%
    10:00 +40°C° 0 mm 6 mps 750 mmHg 47%
    11:00 +41°C° 0 mm 6 mps 749 mmHg 42%
    12:00 +44°C° 0 mm 6 mps 749 mmHg 37%
    13:00 +44°C° 0 mm 6 mps 748 mmHg 37%
    14:00 +44°C° 0 mm 6 mps 748 mmHg 37%
    15:00 +44°C° 0 mm 6 mps 747 mmHg 36%
    16:00 +43°C° 0 mm 7 mps 747 mmHg 40%
    17:00 +41°C° 0 mm 7 mps 747 mmHg 44%
    18:00 +40°C° 0 mm 8 mps 746 mmHg 48%
    19:00 +38°C° 0 mm 8 mps 747 mmHg 53%
    20:00 +37°C° 0 mm 8 mps 747 mmHg 58%
    21:00 +34°C° 0 mm 8 mps 748 mmHg 64%
    22:00 +34°C° 0 mm 8 mps 748 mmHg 64%
    23:00 +34°C° 0 mm 8 mps 748 mmHg 65%

    Day after tomorrow, 24 June, Sunday

    Time Temperature Precipitation Wind Pressure Humidity
    00:00 +34°C° 0 mm 8 mps 749 mmHg 65%
    01:00 +34°C° 0 mm 7 mps 748 mmHg 66%
    02:00 +34°C° 0 mm 7 mps 748 mmHg 66%
    03:00 +34°C° 0 mm 6 mps 747 mmHg 67%
    04:00 +33°C° 0 mm 6 mps 748 mmHg 68%
    05:00 +33°C° 0 mm 6 mps 748 mmHg 70%
    06:00 +33°C° 0 mm 5 mps 748 mmHg 71%
    07:00 +34°C° 0 mm 5 mps 748 mmHg 67%
    08:00 +35°C° 0 mm 5 mps 749 mmHg 63%
    09:00 +37°C° 0 mm 5 mps 749 mmHg 58%
    10:00 +38°C° 0.1 mm 4 mps 749 mmHg 53%
    11:00 +40°C° 0.1 mm 4 mps 749 mmHg 48%
    12:00 +40°C° 0.1 mm 3 mps 749 mmHg 43%
    13:00 +40°C° 0.3 mm 3 mps 748 mmHg 45%
    14:00 +40°C° 0.3 mm 4 mps 748 mmHg 46%
    15:00 +40°C° 0.3 mm 4 mps 747 mmHg 48%
    16:00 +39°C° 0.7 mm 5 mps 747 mmHg 52%
    17:00 +38°C° 0.7 mm 7 mps 747 mmHg 57%
    18:00 +37°C° 0.7 mm 8 mps 747 mmHg 61%
    19:00 +35°C° 0.9 mm 8 mps 747 mmHg 64%
    20:00 +34°C° 0.9 mm 8 mps 748 mmHg 66%
    21:00 +33°C° 0.9 mm 8 mps 749 mmHg 69%
    22:00 +33°C° 0.2 mm 7 mps 749 mmHg 70%
    23:00 +33°C° 0.2 mm 7 mps 749 mmHg 70%

    25 June, Monday

    Time Temperature Precipitation Wind Pressure Humidity
    00:00 +33°C° 0.2 mm 7 mps 749 mmHg 71%
    01:00 +33°C° 0 mm 6 mps 748 mmHg 71%
    02:00 +33°C° 0 mm 5 mps 748 mmHg 71%
    03:00 +33°C° 0 mm 5 mps 747 mmHg 71%
    04:00 +33°C° 0 mm 5 mps 747 mmHg 71%
    05:00 +33°C° 0 mm 4 mps 747 mmHg 72%
    06:00 +33°C° 0 mm 4 mps 747 mmHg 73%
    07:00 +34°C° 0 mm 5 mps 748 mmHg 68%
    08:00 +35°C° 0 mm 5 mps 748 mmHg 63%
    09:00 +36°C° 0 mm 5 mps 748 mmHg 59%
    10:00 +39°C° 0.1 mm 5 mps 748 mmHg 55%
    11:00 +40°C° 0.1 mm 5 mps 748 mmHg 51%
    12:00 +41°C° 0.1 mm 5 mps 748 mmHg 47%
    13:00 +41°C° 0.1 mm 5 mps 747 mmHg 47%
    14:00 +41°C° 0.1 mm 5 mps 747 mmHg 47%
    15:00 +40°C° 0.1 mm 6 mps 746 mmHg 48%
    16:00 +40°C° 0 mm 6 mps 746 mmHg 49%
    17:00 +39°C° 0 mm 6 mps 746 mmHg 50%
    18:00 +38°C° 0 mm 6 mps 745 mmHg 52%
    19:00 +36°C° 0.1 mm 6 mps 746 mmHg 56%
    20:00 +35°C° 0.1 mm 6 mps 747 mmHg 61%
    21:00 +34°C° 0.1 mm 6 mps 747 mmHg 65%
    22:00 +34°C° 0.2 mm 5 mps 747 mmHg 68%
    23:00 +33°C° 0.2 mm 5 mps 748 mmHg 70%

    26 June, Tuesday

    Time Temperature Precipitation Wind Pressure Humidity
    00:00 +33°C° 0.2 mm 5 mps 748 mmHg 73%
    01:00 +33°C° 0 mm 5 mps 747 mmHg 72%
    02:00 +33°C° 0 mm 5 mps 747 mmHg 72%
    03:00 +33°C° 0 mm 5 mps 746 mmHg 71%
    04:00 +33°C° 0 mm 4 mps 747 mmHg 71%
    05:00 +33°C° 0 mm 4 mps 747 mmHg 71%
    06:00 +33°C° 0 mm 3 mps 747 mmHg 71%
    07:00 +34°C° 0 mm 4 mps 748 mmHg 65%
    08:00 +36°C° 0 mm 4 mps 748 mmHg 60%
    09:00 +37°C° 0 mm 4 mps 749 mmHg 54%
    10:00 +38°C° 0.1 mm 4 mps 748 mmHg 51%
    11:00 +40°C° 0.1 mm 4 mps 748 mmHg 47%
    12:00 +40°C° 0.1 mm 3 mps 748 mmHg 44%
    13:00 +40°C° 0 mm 4 mps 748 mmHg 44%
    14:00 +40°C° 0 mm 4 mps 747 mmHg 44%
    15:00 +40°C° 0 mm 4 mps 747 mmHg 44%
    16:00 +40°C° 0 mm 5 mps 747 mmHg 45%
    17:00 +39°C° 0 mm 5 mps 747 mmHg 46%
    18:00 +39°C° 0 mm 5 mps 747 mmHg 48%
    19:00 +37°C° 0.1 mm 5 mps 748 mmHg 52%
    20:00 +36°C° 0.1 mm 5 mps 748 mmHg 56%
    21:00 +34°C° 0.1 mm 6 mps 749 mmHg 60%
    22:00 +34°C° 0 mm 5 mps 749 mmHg 62%
    23:00 +34°C° 0 mm 5 mps 749 mmHg 64%

    27 June, Wednesday

    Time Temperature Precipitation Wind Pressure Humidity
    00:00 +33°C° 0 mm 5 mps 749 mmHg 66%
    01:00 +33°C° 0 mm 4 mps 749 mmHg 66%
    02:00 +33°C° 0 mm 4 mps 748 mmHg 67%
    03:00 +33°C° 0 mm 3 mps 748 mmHg 68%
    04:00 +31°C° 0.2 mm 3 mps 749 mmHg 69%
    05:00 +31°C° 0.2 mm 3 mps 749 mmHg 70%
    06:00 +31°C° 0.2 mm 2 mps 749 mmHg 71%
    07:00 +34°C° 0 mm 3 mps 749 mmHg 65%
    08:00 +35°C° 0 mm 4 mps 750 mmHg 60%
    09:00 +36°C° 0 mm 5 mps 750 mmHg 54%
    10:00 +37°C° 0 mm 5 mps 750 mmHg 51%
    11:00 +39°C° 0 mm 5 mps 749 mmHg 48%
    12:00 +40°C° 0 mm 6 mps 749 mmHg 46%
    13:00 +39°C° 0.1 mm 6 mps 749 mmHg 47%
    14:00 +39°C° 0.1 mm 6 mps 749 mmHg 49%
    15:00 +37°C° 0.1 mm 5 mps 748 mmHg 51%
    16:00 +38°C° 0 mm 6 mps 748 mmHg 53%
    17:00 +36°C° 0 mm 6 mps 748 mmHg 55%
    18:00 +36°C° 0 mm 6 mps 748 mmHg 58%
    19:00 +35°C° 0 mm 6 mps 749 mmHg 61%
    20:00 +34°C° 0 mm 6 mps 750 mmHg 65%
    21:00 +33°C° 0 mm 6 mps 750 mmHg 68%
    22:00 +33°C° 0 mm 5 mps 750 mmHg 69%
    23:00 +33°C° 0 mm 5 mps 750 mmHg 71%
    Show more